Regional Weather Roundup
Issued by NWS

Home | Current Version | Previous Version | Graphics & Text | Print | Product List | Glossary On
Versions: 1 2 3 4 5 6 7 8 9 10 11 12 13 14 15 16 17 18 19 20 21 22 23 24 25 26 27 28 29 30 31 32 33 34 35 36 37 38 39 40 41 42 43 44 45 46 47 48 49 50
000
ASUS43 KIND 011959
RWRIN

WEATHER ROUNDUP FOR INDIANA
NATIONAL WEATHER SERVICE INDIANAPOLIS IN
400 PM EDT WED JUL 01 2015

NOTE: "FAIR" INDICATES FEW OR NO CLOUDS BELOW 12,000 FEET WITH NO
SIGNIFICANT WEATHER AND/OR OBSTRUCTIONS TO VISIBILITY.

* - STATION DOES NOT REPORT WEATHER SUCH AS PRECIPITATION OR FOG.

+ - STATION NOT QUALITY CONTROLLED BY THE NATIONAL WEATHER SERVICE.
    USE DATA WITH CAUTION...ESPECIALLY DEWPOINT AND RELATIVE
    HUMIDITY OBSERVATIONS.

INZ001>003-010>013-019-020-012100-
NORTHWEST INDIANA

CITY           SKY/WX    TMP DP  RH WIND       PRES   REMARKS
GARY /AIRPORT/ PTSUNNY   63  54  72 N10       29.98S
RENSSELAER +   CLOUDY    70  63  78 N8        29.94R

$$

LMZ046-743>745-012100-
SOUTHERN LAKE MICHIGAN

STATION/POSITION TIME  TEMP    WIND        PRES    WAVE
                       AIR SEA DIR/SP/G            HT
                 (UTC) (F)     (DEG/KT/KT) (MB)    (FT)
BURNS HARBOR     1900   60      50/ 12/ 14 1015.6F
MICHIGAN CITY    1900   57      10/ 10/ 12   N/A
5NW MICH CITY    1900   58 65   40/ 10/ 14   N/A     3

$$

INZ004-005-014>016-021>024-012100-
NORTH CENTRAL INDIANA

CITY           SKY/WX    TMP DP  RH WIND       PRES   REMARKS
ELKHART        MOSUNNY   68  52  56 NW8       29.95F
GOSHEN         MOSUNNY   71  57  61 NW14      29.93F
SOUTH BEND     SUNNY     68  52  56 N13       29.96S

$$

INZ006>009-017-018-025>027-012100-
NORTHEAST INDIANA

CITY           SKY/WX    TMP DP  RH WIND       PRES   REMARKS
ANGOLA *+      MOSUNNY   73  66  78 NW8       29.92S
FORT WAYNE     MOSUNNY   74  58  57 NW10      29.92F

$$

INZ028-029-035-036-043>045-051>053-012100-
WEST CENTRAL INDIANA

CITY           SKY/WX    TMP DP  RH WIND       PRES   REMARKS
CRAWFORDSVL +  CLOUDY    72  58  61 CALM      29.92S
GREENCASTLE +  PTSUNNY   72  61  68 CALM      29.91F
LAFAYETTE      PTSUNNY   74  62  66 NE3       29.91F
TERRE HAUTE    PTSUNNY   78  67  68 SE5       29.89F

$$

INZ030>032-037>040-046>048-054>057-064-065-012100-
CENTRAL INDIANA

CITY           SKY/WX    TMP DP  RH WIND       PRES   REMARKS
ANDERSON       PTSUNNY   75  55  50 CALM      29.93F
COLUMBUS       CLOUDY    77  63  61 E5        29.92S
INDIANAPOLIS   CLOUDY    76  60  57 CALM      29.91S
-EAGLE CREEK   PTSUNNY   76  60  57 CALM      29.91S
KOKOMO *+      CLOUDY    73  61  64 NW6       29.92S
MT COMFORT *+  MOSUNNY   77  52  41 CALM      29.92F
SHELBYVILLE    PTSUNNY   78  61  55 CALM      29.91F

$$

INZ033-034-041-042-049-050-058-059-012100-
EAST CENTRAL INDIANA

CITY           SKY/WX    TMP DP  RH WIND       PRES   REMARKS
MUNCIE         MOSUNNY   75  60  59 VRB7      29.92S

$$

INZ060-061-067>069-081>083-085>088-012100-
SOUTHWEST INDIANA

CITY           SKY/WX    TMP DP  RH WIND       PRES   REMARKS
EVANSVILLE     PTSUNNY   81  69  67 W9        29.90F
HUNTINGBURG *+ PTSUNNY   77  70  78 W10       29.91F

$$

INZ062-063-066-070>080-084-089>092-012100-
SOUTH CENTRAL AND SOUTHEAST INDIANA

CITY           SKY/WX    TMP DP  RH WIND       PRES   REMARKS
BLOOMINGTON    PTSUNNY   78  66  66 SE3       29.91S
MADISON *+     PTSUNNY   79  61  53 CALM      29.94S

$$



USA.gov is the U.S. government's official web portal to all federal, state and local government web resources and services.